Location: Caltech
(34.1382°N, 118.1253°W)
Time: 19:47:34
(UTC-07:00)

Daily predictions for brighter satellites

Satellite Brightness Start Highest point End
(mag) Time Altitude Azimuth Time Altitude Azimuth Time Altitude Azimuth
Cosmos 1680 Rocket 3.6 20:13:22 10° S 20:18:27 54° ESE 20:23:31 10° NNE
USA 81 4.3 20:14:56 10° SSE 20:20:02 52° E 20:25:09 10° NNE
Aurora 2 Rocket 4.5 20:16:51 10° WSW 20:22:47 40° S 20:30:56 10° ESE
Cosmos 1975 2.8 20:18:55 10° N 20:23:00 77° E 20:27:05 10° S
Meteor 1-13 Rocket 4.5 20:17:48 10° S 20:23:33 55° E 20:29:18 10° NNE
Cosmos 1455 Rocket 3.0 20:19:20 10° N 20:23:41 72° E 20:27:59 10° SSE
CZ-2D R/B 3.2 20:21:49 10° SSE 20:25:37 78° ENE 20:29:26 10° N
Envisat 3.7 20:22:16 10° SE 20:26:55 37° ENE 20:31:34 10° N
Resurs 01 Rocket 1.7 20:23:08 10° SSE 20:27:34 89° WSW 20:32:01 10° NNW
Tiangong 2 3.3 20:26:54 10° WNW 20:29:41 27° NNW 20:32:27 10° NE
H-2A R/B 3.7 20:27:19 10° S 20:30:54 48° W 20:34:29 10° NNW
Cosmos 1666 3.8 20:29:34 10° NNE 20:32:47 26° E 20:35:58 10° SE
Cosmos 1939 Rocket 3.5 20:38:57 10° SE 20:42:30 36° ENE 20:46:03 10° N
Nadezhda 1 Rocket 4.3 20:37:56 10° SSE 20:43:59 49° E 20:50:07 10° NNE
Cosmos 1833 Rocket 4.3 20:42:34 11° ESE 20:44:43 14° E 20:47:25 10° ENE
Cosmos 1656 Rocket 3.6 20:40:06 10° NNW 20:45:35 87° ENE 20:51:07 10° SSE
Cosmos 1346 3.0 20:45:15 10° SSW 20:47:59 73° W 20:50:44 10° N
Helios 1A 3.1 20:45:26 10° SSE 20:49:34 58° ENE 20:53:42 10° N
SL-08 ROCKET BODY 4.5 20:45:04 10° N 20:51:17 81° E 20:57:28 10° S
Meteor 2-4 Rocket 3.7 20:52:44 10° S 20:58:19 75° E 21:04:07 10° NNE
CZ-4B DEB 2.9 20:57:07 18° SE 20:59:02 49° ENE 21:01:56 10° N
Hubble Space Telescope 2.4 20:58:09 10° SSW 21:00:48 16° SSE 21:01:15 16° SSE
ERS-1 Rocket 3.7 21:01:27 17° SE 21:04:40 35° ENE 21:09:12 10° N
GENESIS II 4.1 21:00:57 10° NNW 21:04:54 81° ENE 21:07:25 21° SSE
Cosmos 1943 Rocket 4.3 21:05:46 10° NW 21:09:56 22° W 21:14:03 10° SSW
Meteor 1-29 3.1 21:07:35 10° N 21:10:56 71° WNW 21:14:16 10° SSW
Helios 1B rocket 3.0 21:07:32 10° N 21:11:36 60° WNW 21:15:40 10° SSW
ISS -0.6 21:10:23 10° WNW 21:12:24 15° NNW 21:14:25 10° N
Cosmos 405 Rocket 4.5 21:09:04 10° SW 21:12:29 33° WNW 21:15:58 10° NNW
Cosmos 967 Rocket 4.4 21:06:33 10° SSW 21:12:46 73° ESE 21:19:02 10° NNE
Okean 1-7 Rocket 3.5 21:10:01 10° S 21:14:27 83° E 21:18:58 10° N
CENTAUR R/B 3.5 21:10:21 10° NW 21:18:20 62° WSW 21:25:55 13° SSE
CRYOSAT 2 4.4 21:16:11 19° SSE 21:19:39 64° E 21:24:27 10° N
Cosmos 1441 Rocket 3.8 21:16:08 10° SSW 21:19:47 54° W 21:23:27 10° N
USA 186 4.2 21:17:24 10° SSW 21:19:50 20° W 21:22:14 10° NW
Cosmos 1238 Rocket 4.2 21:13:20 10° S 21:20:05 87° W 21:26:38 10° N
SJ-11-01 4.5 21:17:59 13° S 21:22:07 70° WSW 21:26:49 10° NNW
ARGOS 4.1 21:21:12 22° ESE 21:23:36 31° ENE 21:28:19 10° N
OAO 2 Rocket 3.2 21:20:19 10° W 21:25:16 88° NNE 21:28:19 24° E
DNEPR-1 R/B 3.9 21:21:01 10° NW 21:25:19 64° WSW 21:28:16 23° SSE
Cosmos 1606 Rocket 4.0 21:22:11 10° N 21:26:15 40° E 21:27:38 31° ESE
Cosmos 1025 Rocket 3.2 21:25:33 10° SSW 21:29:47 72° W 21:34:03 10° N
ASTEX 1 3.3 21:27:09 18° S 21:30:47 89° WSW 21:35:41 10° N
Okean 2 3.3 21:31:16 17° S 21:34:20 84° W 21:38:25 10° N
NOAA 11 4.3 21:32:30 28° SE 21:35:14 58° ENE 21:40:34 10° N
Cosmos 1726 Rocket 4.0 21:31:26 10° N 21:35:34 43° E 21:36:32 36° ESE
Cosmos 2341 Rocket 4.2 21:33:57 10° N 21:40:13 58° E 21:43:21 30° SSE
MetOp-B 4.2 21:38:36 32° SE 21:40:59 59° ENE 21:46:15 10° N
PSLV R/B 3.1 21:40:16 10° WNW 21:43:22 67° NNE 21:43:33 65° NE
ASTRO E2 4.3 21:40:37 10° WSW 21:43:39 21° SSW 21:43:39 21° SSW
Cosmos 1624 Rocket 3.9 21:43:42 10° NNW 21:49:01 85° ENE 21:51:09 38° SSE
H-2A R/B 2.8 21:49:51 30° E 21:50:47 33° ENE 21:55:14 10° N
Cosmos 2082 Rocket 2.1 21:49:10 20° S 21:53:04 68° ESE 21:58:43 10° NNE
Cosmos 2058 Rocket 3.3 21:48:47 10° N 21:53:06 50° E 21:53:37 47° ESE
YAOGAN 6 3.8 21:52:08 25° SW 21:53:29 35° W 21:56:44 10° NNW
YAOGAN 11 4.1 21:53:29 53° SE 21:54:16 64° ENE 21:58:33 10° N
Cosmos 2278 3.8 21:52:49 10° NNW 21:58:29 61° ENE 22:00:08 43° SE
Meteor 1-4 Rocket 4.4 21:55:59 10° NNE 21:57:49 20° NE 21:57:49 20° NE
Cosmos 2181 Rocket 4.0 22:01:07 23° S 22:05:18 85° W 22:11:38 10° N
Nimbus 7 Rocket 4.3 22:00:39 10° NNE 22:06:43 76° ESE 22:09:30 34° S
Tiangong 2 3.8 22:04:55 10° NW 22:07:04 17° N 22:08:33 13° NNE
Cosmos 2056 Rocket 3.6 22:03:22 10° NNW 22:08:28 67° WSW 22:10:00 44° S
H-2A R/B 3.7 22:09:07 22° ENE 22:09:07 22° ENE 22:12:22 10° NNE
Cosmos 1295 Rocket 4.4 22:06:10 10° N 22:12:24 88° E 22:14:41 42° S
Landsat 7 4.4 22:14:33 41° ENE 22:14:36 41° ENE 22:19:04 10° N
MOS 1-B Rocket 4.2 22:13:36 35° S 22:16:02 66° WSW 22:22:20 10° NNW
Cosmos 1697 Rocket 3.3 22:10:57 10° N 22:16:14 40° ENE 22:17:01 38° E
Cosmos 2369 3.6 22:12:58 10° NNW 22:18:44 90° WSW 22:19:58 57° SSE
Cosmos 1656 3.6 22:13:31 10° NNW 22:18:56 63° ENE 22:19:42 56° ESE
Cosmos 1626 Rocket 3.9 22:19:42 50° NE 22:19:42 50° NE 22:23:12 10° NNE
COSMOS 2487 4.2 22:18:30 24° WSW 22:19:49 31° WNW 22:23:03 10° N
DMSP B5D2-2 4.1 22:14:53 10° NNE 22:20:05 57° E 22:20:10 57° ESE
Cosmos 1048 Rocket 4.2 22:25:41 53° ENE 22:25:41 53° ENE 22:30:09 10° NNE
Meteor 2-21 4.4 22:20:13 10° N 22:26:11 61° E 22:26:59 56° ESE
Cosmos 1833 Rocket 3.0 22:24:08 20° SW 22:27:58 63° WNW 22:33:34 10° NNE
Terra 2.6 22:30:03 40° ENE 22:30:03 40° ENE 22:34:05 10° N
Cosmos 2228 3.5 22:32:21 10° NNW 22:36:23 54° W 22:36:23 54° W
SPOT 5 3.4 22:37:16 43° WSW 22:37:23 43° W 22:41:32 10° NNW
Cosmos 921 Rocket 4.0 22:34:09 10° NNW 22:38:20 40° W 22:38:25 40° WSW
Cosmos 1452 Rocket 3.4 22:35:07 10° NNW 22:40:25 88° WSW 22:40:31 86° SSW
SPOT 1/Viking Rocket 3.7 22:41:51 61° SW 22:42:17 64° WSW 22:47:25 10° NNW
SL-24 R/B - RUBIN 2 4.4 22:43:44 61° S 22:44:56 77° ESE 22:51:34 10° NNE
SL-8 Rocket 4.2 22:40:37 10° NNW 22:46:49 65° W 22:48:18 50° SSW
H-2A R/B 4.1 22:33:29 10° W 22:49:27 27° SW 22:50:37 26° SW
Lacrosse 5 4.3 22:56:51 11° ENE 22:56:51 11° ENE 22:56:59 10° NE
Cosmos 2366 rocket 3.8 22:47:06 10° N 22:53:16 80° W 22:53:57 70° SSW
Cosmos 1602 Rocket 4.4 22:54:55 48° NW 22:54:55 48° NW 22:58:32 10° N
USA 267 4.2 22:51:38 10° NE 22:55:15 31° ENE 22:55:15 31° ENE
Cosmos 1980 Rocket 2.4 22:59:27 10° NNW 23:04:37 60° NE 23:04:37 60° NE
Meteor 2-8 Rocket 4.5 23:13:15 70° ENE 23:13:15 70° ENE 23:18:54 10° N
Meteor 1-21 4.5 23:13:49 63° W 23:13:56 63° W 23:19:38 10° N
Lacrosse 5 rocket 4.3 23:12:49 10° N 23:14:36 12° NNE 23:15:49 11° NE
Cosmos 2322 Rocket 3.6 23:11:26 10° N 23:16:00 27° ENE 23:16:00 27° ENE
H-2A R/B 3.8 23:30:29 22° W 23:30:29 22° W 23:34:04 10° NW
USA 229 DEB 3.7 23:23:04 10° NNW 23:30:17 82° ENE 23:30:31 81° E
USA 229 3.7 23:23:10 10° NNW 23:30:23 82° ENE 23:30:38 80° E
CZ-4B R/B 4.3 23:31:40 10° N 23:35:55 50° NW 23:35:55 50° NW
CZ-2C R/B 4.2 23:31:48 10° NNE 23:34:42 26° NE 23:34:42 26° NE
Cosmos 1934 Rocket 4.5 23:32:22 10° N 23:37:46 52° NE 23:37:46 52° NE
H-2A R/B 4.2 23:46:15 23° WNW 23:46:15 23° WNW 23:48:36 10° NW
ATLAS CENTAUR R/B 4.1 23:46:27 10° N 23:47:06 14° N 23:47:06 14° N
